Location: Bourg-d�Oueil
(42.8588°N, 0.4991°E)
Time: 17:13:46
(UTC+00:00)

SL-16 R/B - Pass Details

Date: 16 June 2021
Orbit: 842 x 847 km, 71.0° (Epoch: 03 August)

Event Time Altitude Azimuth Distance (km) Brightness Sun altitude
Exits shadow 23:20:41 25° 106° (ESE) 1,633 3.4 -23.2°
Maximum altitude 23:20:55 25° 102° (ESE) 1,631 3.5 -23.2°
Drops below altitude 10° 23:25:27 10° 49° (NE) 2,470 5.0 -23.3°
Sets 23:28:16 0° 36° (NE) 3,409 6.0 -23.4°
